| time (UTC) | temp F | wind direction | speed MPH | gust MPH | rain 1hr in | rain 24hr in | rain mn in | humidity % | barometer mb |
| 20260901044022 | 62 | 0.0 | 0.0 | 0.00 | 0.00 | 0.00 | 76 | 1017.7 | |
| 20260901043024 | 62 | 0.0 | 0.0 | 0.00 | 0.00 | 0.00 | 76 | 1017.7 | |
| 20260901042021 | 62 | 0.0 | 0.0 | 0.00 | 0.00 | 0.00 | 76 | 1017.7 | |
| 20260901041019 | 62 | 0.0 | 0.0 | 0.00 | 0.00 | 0.00 | 76 | 1017.7 | |
| 20260901040036 | 62 | 0.0 | 0.0 | 0.00 | 0.00 | 0.00 | 76 | 1017.5 | |
| 20260901035019 | 62 | 0.0 | 0.0 | 0.00 | 0.00 | 0.00 | 75 | 1017.8 | |
| 20260901034022 | 62 | 0.0 | 0.0 | 0.00 | 0.00 | 0.00 | 75 | 1017.7 | |
| 20260901033026 | 62 | 0.0 | 0.0 | 0.00 | 0.00 | 0.00 | 75 | 1017.8 | |
| 20260901032029 | 62 | 0.0 | 0.0 | 0.00 | 0.00 | 0.00 | 74 | 1017.8 | |
| 20260901031032 | 62 | 0.0 | 0.0 | 0.00 | 0.00 | 0.00 | 74 | 1017.6 | |
| 20260901030038 | 62 | 0.0 | 0.0 | 0.00 | 0.00 | 0.00 | 74 | 1017.7 | |
| 20260901025021 | 62 | 0.0 | 0.0 | 0.00 | 0.00 | 0.00 | 74 | 1017.6 | |
| 20260901024045 | 62 | 0.0 | 0.0 | 0.00 | 0.00 | 0.00 | 73 | 1017.9 | |
| 20260901023028 | 62 | 0.0 | 0.0 | 0.00 | 0.00 | 0.00 | 73 | 1017.8 | |
| 20260901022031 | 63 | 0.0 | 0.0 | 0.00 | 0.00 | 0.00 | 72 | 1017.7 | |
| 20260901021057 | 63 | 0.0 | 0.0 | 0.00 | 0.00 | 0.00 | 72 | 1017.7 | |
| 20260901020020 | 64 | 0.0 | 0.0 | 0.00 | 0.00 | 0.00 | 71 | 1017.7 | |
| 20260901015023 | 64 | 0.0 | 0.0 | 0.00 | 0.00 | 0.00 | 71 | 1017.9 | |
| 20260901014046 | 64 | 0.0 | 0.0 | 0.00 | 0.00 | 0.00 | 70 | 1017.9 | |
| 20260901013030 | 64 | 0.0 | 0.0 | 0.00 | 0.00 | 0.00 | 70 | 1017.9 | |
| 20260901012015 | 65 | 0.0 | 0.0 | 0.00 | 0.00 | 0.00 | 68 | 1018.0 | |
| 20260901011018 | 65 | 0.0 | 0.0 | 0.00 | 0.00 | 0.00 | 68 | 1017.9 | |
| 20260901010021 | 66 | 0.0 | 0.0 | 0.00 | 0.00 | 0.00 | 66 | 1018.0 | |
| 20260901005024 | 66 | 0.0 | 0.0 | 0.00 | 0.00 | 0.00 | 66 | 1017.8 | |
| 20260901004022 | 67 | 0.0 | 0.0 | 0.00 | 0.00 | 0.00 | 65 | 1017.8 | |
| 20260901003019 | 67 | 0.0 | 0.0 | 0.00 | 0.00 | 0.00 | 64 | 1017.8 | |
| 20260901002016 | 67 | 0.0 | 0.0 | 0.00 | 0.00 | 0.00 | 63 | 1017.8 | |
| 20260901001020 | 68 | 0.0 | 0.0 | 0.00 | 0.00 | 0.00 | 62 | 1017.6 | |
| 20260901000023 | 68 | 0.0 | 0.0 | 0.00 | 0.00 | 0.00 | 61 | 1017.6 | |
| 20260831235026 | 69 | 0.0 | 0.0 | 0.00 | 0.00 | 0.00 | 60 | 1017.7 | |
| 20260831234050 | 70 | 0.0 | 0.0 | 0.00 | 0.00 | 0.00 | 59 | 1017.9 | |
| 20260831233015 | 71 | 0.0 | 0.0 | 0.00 | 0.00 | 0.00 | 58 | 1017.9 | |
| 20260831232018 | 72 | 0.0 | 0.0 | 0.00 | 0.00 | 0.00 | 57 | 1017.8 | |
| 20260831231022 | 73 | 0.0 | 0.0 | 0.00 | 0.00 | 0.00 | 55 | 1017.9 | |
| 20260831230025 | 74 | 0.0 | 0.0 | 0.00 | 0.00 | 0.00 | 54 | 1018.0 | |
| 20260831225028 | 76 | 0.0 | 0.0 | 0.00 | 0.00 | 0.00 | 53 | 1017.9 | |
| 20260831224032 | 78 | 0.0 | 0.0 | 0.00 | 0.00 | 0.00 | 50 | 1017.9 | |
| 20260831223017 | 80 | 0.0 | 0.0 | 0.00 | 0.00 | 0.00 | 50 | 1017.8 | |
| 20260831222020 | 80 | 0.0 | 0.0 | 0.00 | 0.00 | 0.00 | 46 | 1017.7 | |
| 20260831221024 | 81 | 0.0 | 0.0 | 0.00 | 0.00 | 0.00 | 45 | 1017.6 | |
| 20260831220027 | 81 | 0.0 | 2.0 | 0.00 | 0.00 | 0.00 | 45 | 1017.6 | |
| 20260831215050 | 83 | 0.0 | 4.0 | 0.00 | 0.00 | 0.00 | 44 | 1017.7 | |
| 20260831214015 | 83 | 0.0 | 0.0 | 0.00 | 0.00 | 0.00 | 44 | 1017.7 | |
| 20260831213019 | 82 | 0.0 | 0.0 | 0.00 | 0.00 | 0.00 | 44 | 1017.8 | |
| 20260831212022 | 79 | 0.0 | 0.0 | 0.00 | 0.00 | 0.00 | 48 | 1017.9 | |
| 20260831211025 | 81 | 270 | 0.0 | 2.0 | 0.00 | 0.00 | 0.00 | 44 | 1018.0 |
| 20260831210023 | 82 | 0.0 | 0.0 | 0.00 | 0.00 | 0.00 | 42 | 1018.0 | |
| 20260831205020 | 81 | 239 | 1.0 | 5.0 | 0.00 | 0.00 | 0.00 | 42 | 1018.0 |
| 20260831204017 | 84 | 338 | 0.0 | 2.0 | 0.00 | 0.00 | 0.00 | 38 | 1018.0 |
| 20260831203020 | 83 | 0.0 | 0.0 | 0.00 | 0.00 | 0.00 | 39 | 1018.0 | |
| 20260831202044 | 83 | 0.0 | 0.0 | 0.00 | 0.00 | 0.00 | 38 | 1018.0 | |
| 20260831201027 | 85 | 0.0 | 0.0 | 0.00 | 0.00 | 0.00 | 36 | 1018.1 | |
| 20260831200031 | 84 | 203 | 0.0 | 1.0 | 0.00 | 0.00 | 0.00 | 37 | 1018.2 |
| 20260831195016 | 82 | 276 | 1.0 | 2.0 | 0.00 | 0.00 | 0.00 | 36 | 1018.2 |
| 20260831194039 | 83 | 225 | 0.0 | 1.0 | 0.00 | 0.00 | 0.00 | 35 | 1018.2 |
| 20260831193022 | 83 | 156 | 2.0 | 7.0 | 0.00 | 0.00 | 0.00 | 36 | 1018.3 |
| 20260831192025 | 83 | 303 | 1.0 | 3.0 | 0.00 | 0.00 | 0.00 | 37 | 1018.5 |
| 20260831191029 | 84 | 0.0 | 0.0 | 0.00 | 0.00 | 0.00 | 37 | 1018.7 | |
| 20260831190032 | 83 | 0.0 | 0.0 | 0.00 | 0.00 | 0.00 | 37 | 1018.7 | |
| 20260831185017 | 82 | 0.0 | 0.0 | 0.00 | 0.00 | 0.00 | 38 | 1018.9 | |
| 20260831184021 | 82 | 239 | 1.0 | 3.0 | 0.00 | 0.00 | 0.00 | 38 | 1019.0 |
| 20260831183024 | 82 | 270 | 0.0 | 1.0 | 0.00 | 0.00 | 0.00 | 38 | 1018.9 |
| 20260831182027 | 82 | 0.0 | 0.0 | 0.00 | 0.00 | 0.00 | 38 | 1018.9 | |
| 20260831181031 | 82 | 253 | 1.0 | 3.0 | 0.00 | 0.00 | 0.00 | 37 | 1019.1 |
| 20260831180016 | 81 | 248 | 0.0 | 1.0 | 0.00 | 0.00 | 0.00 | 38 | 1019.1 |
| 20260831175019 | 80 | 203 | 1.0 | 4.0 | 0.00 | 0.00 | 0.00 | 39 | 1019.2 |
| 20260831174022 | 78 | 0.0 | 0.0 | 0.00 | 0.00 | 0.00 | 43 | 1019.4 | |
| 20260831173026 | 78 | 0.0 | 1.0 | 0.00 | 0.00 | 0.00 | 44 | 1019.5 | |
| 20260831172023 | 79 | 0.0 | 0.0 | 0.00 | 0.00 | 0.00 | 44 | 1019.5 | |
| 20260831171020 | 79 | 269 | 1.0 | 4.0 | 0.00 | 0.00 | 0.00 | 41 | 1019.3 |
| 20260831170018 | 80 | 0.0 | 1.0 | 0.00 | 0.00 | 0.00 | 42 | 1019.6 | |
| 20260831165015 | 79 | 0.0 | 0.0 | 0.00 | 0.00 | 0.00 | 41 | 1019.7 | |
| 20260831164024 | 81 | 0.0 | 0.0 | 0.00 | 0.00 | 0.00 | 42 | 1019.7 | |
| 20260831163108 | 77 | 0.0 | 0.0 | 0.00 | 0.00 | 0.00 | 42 | 1019.8 | |
| 20260831162031 | 78 | 0.0 | 0.0 | 0.00 | 0.00 | 0.00 | 41 | 1020.0 | |
| 20260831161016 | 77 | 0.0 | 0.0 | 0.00 | 0.00 | 0.00 | 42 | 1020.1 | |
| 20260831160019 | 76 | 0.0 | 3.0 | 0.00 | 0.00 | 0.00 | 43 | 1020.1 | |
| 20260831155023 | 75 | 0.0 | 0.0 | 0.00 | 0.00 | 0.00 | 45 | 1020.1 | |
| 20260831154026 | 77 | 0.0 | 0.0 | 0.00 | 0.00 | 0.00 | 44 | 1020.3 | |
| 20260831153029 | 75 | 0.0 | 0.0 | 0.00 | 0.00 | 0.00 | 44 | 1020.3 | |
| 20260831152033 | 75 | 0.0 | 0.0 | 0.00 | 0.00 | 0.00 | 46 | 1020.3 | |
| 20260831151018 | 75 | 0.0 | 0.0 | 0.00 | 0.00 | 0.00 | 48 | 1020.5 | |
| 20260831150021 | 75 | 0.0 | 0.0 | 0.00 | 0.00 | 0.00 | 48 | 1020.6 | |
| 20260831145025 | 73 | 0.0 | 0.0 | 0.00 | 0.00 | 0.00 | 50 | 1020.5 | |
| 20260831144028 | 71 | 0.0 | 0.0 | 0.00 | 0.00 | 0.00 | 52 | 1020.6 | |
| 20260831143031 | 71 | 0.0 | 0.0 | 0.00 | 0.00 | 0.00 | 51 | 1020.6 | |
| 20260831142016 | 71 | 0.0 | 0.0 | 0.00 | 0.00 | 0.00 | 52 | 1020.5 | |
| 20260831141019 | 70 | 0.0 | 0.0 | 0.00 | 0.00 | 0.00 | 54 | 1020.5 | |
| 20260831140023 | 69 | 0.0 | 0.0 | 0.00 | 0.00 | 0.00 | 54 | 1020.6 | |
| 20260831135026 | 67 | 0.0 | 0.0 | 0.00 | 0.00 | 0.00 | 56 | 1020.5 | |
| 20260831134044 | 64 | 0.0 | 0.0 | 0.00 | 0.00 | 0.00 | 68 | 1020.6 | |
| 20260831133035 | 63 | 0.0 | 0.0 | 0.00 | 0.00 | 0.00 | 69 | 1020.5 | |
| 20260831132018 | 62 | 0.0 | 0.0 | 0.00 | 0.00 | 0.00 | 73 | 1020.3 | |
| 20260831131016 | 61 | 0.0 | 0.0 | 0.00 | 0.00 | 0.00 | 74 | 1020.4 | |
| 20260831130045 | 61 | 0.0 | 0.0 | 0.00 | 0.00 | 0.00 | 75 | 1020.4 | |
| 20260831125028 | 61 | 0.0 | 0.0 | 0.00 | 0.00 | 0.00 | 76 | 1020.2 | |
| 20260831124031 | 60 | 0.0 | 0.0 | 0.00 | 0.00 | 0.00 | 83 | 1020.2 | |
| 20260831123016 | 60 | 0.0 | 0.0 | 0.00 | 0.00 | 0.00 | 86 | 1020.1 | |
| 20260831122020 | 59 | 270 | 0.0 | 1.0 | 0.00 | 0.00 | 0.00 | 87 | 1020.0 |
| 20260831121023 | 59 | 0.0 | 0.0 | 0.00 | 0.00 | 0.00 | 87 | 1019.9 | |
| 20260831120027 | 58 | 0.0 | 0.0 | 0.00 | 0.00 | 0.00 | 87 | 1019.8 | |
| 20260831115030 | 58 | 0.0 | 0.0 | 0.00 | 0.00 | 0.00 | 87 | 1019.9 | |
| 20260831114015 | 57 | 0.0 | 0.0 | 0.00 | 0.00 | 0.00 | 87 | 1019.9 | |
| 20260831113038 | 57 | 0.0 | 0.0 | 0.00 | 0.00 | 0.00 | 87 | 1019.9 | |
| 20260831112021 | 57 | 0.0 | 0.0 | 0.00 | 0.00 | 0.00 | 86 | 1019.9 | |
| 20260831111025 | 56 | 0.0 | 0.0 | 0.00 | 0.00 | 0.00 | 86 | 1019.9 | |
| 20260831110028 | 57 | 0.0 | 0.0 | 0.00 | 0.00 | 0.00 | 86 | 1019.8 | |
| 20260831105031 | 57 | 0.0 | 0.0 | 0.00 | 0.00 | 0.00 | 86 | 1020.0 | |
| 20260831104017 | 57 | 0.0 | 0.0 | 0.00 | 0.00 | 0.00 | 84 | 1019.8 | |
| 20260831103100 | 57 | 0.0 | 0.0 | 0.00 | 0.00 | 0.00 | 84 | 1019.6 | |
| 20260831102023 | 57 | 0.0 | 0.0 | 0.00 | 0.00 | 0.00 | 84 | 1019.5 | |
| 20260831101026 | 57 | 0.0 | 0.0 | 0.00 | 0.00 | 0.00 | 84 | 1019.4 | |
| 20260831100044 | 57 | 0.0 | 0.0 | 0.00 | 0.00 | 0.00 | 84 | 1019.2 | |
| 20260831095015 | 58 | 0.0 | 0.0 | 0.00 | 0.00 | 0.00 | 84 | 1018.9 | |
| 20260831094018 | 58 | 0.0 | 0.0 | 0.00 | 0.00 | 0.00 | 84 | 1018.9 | |
| 20260831093015 | 58 | 0.0 | 0.0 | 0.00 | 0.00 | 0.00 | 84 | 1018.8 | |
| 20260831092025 | 58 | 0.0 | 0.0 | 0.00 | 0.00 | 0.00 | 84 | 1018.7 | |
| 20260831091028 | 59 | 0.0 | 0.0 | 0.00 | 0.00 | 0.00 | 84 | 1018.5 | |
| 20260831090032 | 59 | 0.0 | 0.0 | 0.00 | 0.00 | 0.00 | 83 | 1018.4 | |
| 20260831085036 | 59 | 0.0 | 0.0 | 0.00 | 0.00 | 0.00 | 82 | 1018.5 | |
| 20260831084020 | 59 | 0.0 | 0.0 | 0.00 | 0.00 | 0.00 | 82 | 1018.4 | |
| 20260831083023 | 60 | 0.0 | 0.0 | 0.00 | 0.00 | 0.00 | 81 | 1018.4 | |
| 20260831082027 | 60 | 0.0 | 0.0 | 0.00 | 0.00 | 0.00 | 81 | 1018.4 | |
| 20260831081030 | 60 | 0.0 | 0.0 | 0.00 | 0.00 | 0.00 | 81 | 1018.2 | |
| 20260831080015 | 60 | 0.0 | 0.0 | 0.00 | 0.00 | 0.00 | 81 | 1018.0 | |
| 20260831075018 | 60 | 0.0 | 0.0 | 0.00 | 0.00 | 0.00 | 80 | 1018.1 | |
| 20260831074022 | 60 | 0.0 | 0.0 | 0.00 | 0.00 | 0.00 | 80 | 1018.0 | |
| 20260831073025 | 61 | 0.0 | 0.0 | 0.00 | 0.00 | 0.00 | 80 | 1018.0 | |
| 20260831072028 | 61 | 0.0 | 0.0 | 0.00 | 0.00 | 0.00 | 79 | 1017.9 | |
| 20260831071031 | 61 | 0.0 | 0.0 | 0.00 | 0.00 | 0.00 | 79 | 1017.6 | |
| 20260831070017 | 62 | 0.0 | 0.0 | 0.00 | 0.00 | 0.00 | 78 | 1017.7 | |
| 20260831065020 | 62 | 0.0 | 0.0 | 0.00 | 0.00 | 0.00 | 78 | 1017.8 | |
| 20260831064023 | 63 | 0.0 | 0.0 | 0.00 | 0.00 | 0.00 | 78 | 1017.7 | |
| 20260831063047 | 63 | 0.0 | 0.0 | 0.00 | 0.00 | 0.00 | 78 | 1017.6 | |
| 20260831062024 | 64 | 0.0 | 0.0 | 0.00 | 0.00 | 0.00 | 78 | 1017.5 | |
| 20260831061056 | 64 | 0.0 | 0.0 | 0.00 | 0.00 | 0.00 | 78 | 1017.4 | |
| 20260831060039 | 64 | 0.0 | 0.0 | 0.00 | 0.00 | 0.00 | 77 | 1017.3 | |
| 20260831055016 | 65 | 0.0 | 0.0 | 0.00 | 0.00 | 0.00 | 77 | 1017.4 | |
| 20260831054146 | 65 | 0.0 | 0.0 | 0.00 | 0.00 | 0.00 | 77 | 1017.3 | |
| 20260831053029 | 66 | 0.0 | 0.0 | 0.00 | 0.00 | 0.00 | 76 | 1017.3 | |
| 20260831052032 | 66 | 0.0 | 0.0 | 0.00 | 0.00 | 0.00 | 75 | 1017.3 | |
| 20260831051017 | 66 | 0.0 | 0.0 | 0.00 | 0.00 | 0.00 | 75 | 1017.2 | |
| 20260831050020 | 67 | 0.0 | 0.0 | 0.00 | 0.00 | 0.00 | 75 | 1017.1 | |
| 20260831045024 | 67 | 0.0 | 0.0 | 0.00 | 0.00 | 0.00 | 74 | 1016.9 |